RH
47 39 34 36 56 42 21 24 19 22 23 20 23 26 28 30 37 59 30 26 32 36 47 59 81 76 73 74 75 75 73 72 73 74 72 72 74 73 67 66 66 64 63 64 61 62 64 62 65
29 38 39 42 53 20 29 19 24 21 21 21 25 27 28 40 31 33 28 30 31 34 43 48 84 79 74 74 75 75 72 69 72 75 74 72 71 69 67 65 64 65 66 66 64 63 64 66 66
40 40 48 44 26 23 22 19 22 22 21 23 25 24 29 41 30 27 26 29 29 33 35 49 79 79 74 74 74 73 72 71 71 70 69 70 68 67 65 64 64 65 66 66 65 64 67 68 66
38 38 39 30 24 19 20 20 20 22 21 20 22 30 34 30 27 25 26 26 29 31 33 70 78 74 75 74 73 72 71 71 70 69 68 68 67 66 66 66 65 66 66 66 64 66 68 66 66
35 38 45 26 23 19 18 19 18 19 20 21 21 31 39 30 26 27 27 26 28 28 36 51 80 78 75 75 74 73 72 71 70 70 69 69 69 69 70 70 68 68 68 65 66 66 65 64 65
38 41 42 25 21 20 19 18 17 18 18 21 22 30 39 31 28 26 25 27 24 26 35 45 75 77 74 74 74 73 72 71 71 70 71 69 69 71 72 68 67 70 70 67 64 64 64 64 65
39 46 28 21 25 23 19 19 16 18 20 20 19 27 35 30 27 25 27 26 24 24 30 40 47 63 74 73 73 74 74 73 73 72 71 70 72 71 70 71 66 66 66 66 66 67 67 68 68
36 39 23 19 22 23 20 18 18 16 19 18 20 28 34 29 26 25 25 25 25 25 26 33 41 44 48 50 75 73 72 71 71 69 71 69 70 70 72 74 74 70 69 69 70 70 67 66 68
28 47 26 22 24 21 19 18 17 15 20 20 20 20 21 27 26 25 27 26 28 27 27 27 40 58 56 48 57 73 74 74 73 68 71 70 48 56 57 66 71 67 69 68 69 72 69 68 69
33 50 23 20 20 19 18 17 18 19 20 25 26 20 24 26 27 27 28 28 29 28 25 24 28 33 47 33 62 47 43 43 48 47 59 47 44 68 50 61 73 70 70 70 72 73 71 67 78
28 62 22 21 19 19 17 17 17 20 22 19 26 26 27 28 28 27 26 26 27 27 25 24 23 29 31 31 32 37 34 39 43 56 52 45 58 41 34 45 47 48 64 42 57 66 68 51 50
52 23 24 24 20 20 20 17 19 18 19 18 23 25 26 27 25 24 24 24 23 25 24 23 25 27 28 28 31 38 39 33 36 43 52 57 48 40 43 34 33 45 41 42 44 69 79 50 60
26 24 22 22 22 21 19 22 23 22 20 21 22 25 25 24 24 23 22 22 23 26 26 25 29 37 34 38 34 38 31 32 31 36 47 44 40 42 39 40 37 36 35 37 51 47 62 64 47
25 23 23 22 22 21 23 23 23 23 21 24 26 24 23 23 22 23 24 24 26 26 27 25 30 41 39 45 47 41 36 34 35 33 34 50 42 45 40 42 39 38 36 36 48 70 67 62 50
24 28 22 22 31 25 21 27 27 22 22 26 26 24 22 22 21 23 24 26 27 27 26 28 32 35 46 51 50 45 38 32 34 35 40 47 50 49 53 40 39 37 37 42 44 47 44 53 46
24 22 82 24 23 27 27 86 26 22 24 26 26 25 22 22 20 21 23 26 26 26 31 32 29 32 43 48 48 43 41 37 34 32 34 46 48 53 54 42 37 37 36 36 37 37 37 34 33
27 32 29 25 21 23 23 43 24 23 23 26 26 26 23 21 21 22 20 21 22 27 32 35 36 33 38 51 46 46 50 40 34 31 30 44 45 46 53 41 36 47 37 36 35 34 38 37 34
32 30 21 24 20 20 21 23 22 22 22 24 24 26 25 23 22 22 22 22 24 28 33 38 38 43 44 42 51 40 39 39 36 32 29 34 36 47 49 44 45 45 41 40 38 56 40 40 39
18 18 20 16 16 18 16 18 18 21 20 22 22 24 25 24 21 22 23 23 24 27 33 39 44 55 48 43 44 44 38 37 36 33 37 41 38 39 56 44 42 47 51 54 65 65 60 43 42
16 19 17 14 14 17 13 14 16 18 20 20 20 21 22 22 21 22 24 25 25 26 31 38 45 53 52 44 45 41 38 33 33 34 39 42 43 44 44 53 44 46 43 63 62 67 54 53 43
18 15 15 16 12 12 13 14 14 15 16 18 17 18 19 20 21 22 24 26 24 27 30 35 47 52 56 58 44 44 44 41 39 40 40 40 52 52 56 56 54 56 51 38 63 62 73 56 49
46 13 13 14 16 32 16 22 16 13 12 16 14 15 14 16 18 20 22 24 24 24 25 31 41 52 53 59 58 63 46 46 39 43 49 49 61 58 67 69 69 64 46 54 48 49 59 77 57
16 12 12 13 14 12 10 20 16 11 12 11 10 12 11 12 13 14 15 18 18 20 22 26 41 47 54 56 63 53 60 43 39 40 57 62 61 63 60 65 68 72 58 62 71 63 72 62 66
12 13 13 12 21 59 17 19 36 31 22 9 8 9 10 11 11 12 12 14 16 18 19 23 39 54 54 56 59 70 72 65 52 50 46 43 44 47 63 67 76 77 74 71 64 72 76 75 67
12 14 24 24 19 19 10 14 20 26 18 9 9 8 9 10 10 11 13 14 15 17 21 25 38 54 53 56 58 61 68 71 72 70 53 57 47 57 62 70 76 66 75 75 79 82 79 79 78
12 10 14 18 17 11 10 15 16 14 9 9 10 9 9 10 8 9 10 12 15 18 29 30 41 53 56 57 63 67 68 56 55 63 58 52 47 46 65 70 71 73 76 75 82 85 68 74 76
18 15 9 8 8 9 8 9 7 9 9 9 9 10 9 9 9 9 8 10 14 21 31 33 46 52 52 52 61 67 69 71 65 70 70 54 66 54 65 66 64 69 74 78 80 63 75 72 81
8 8 9 9 18 17 12 13 14 11 10 10 9 8 8 8 8 10 10 11 14 20 27 31 40 49 52 53 59 60 66 69 71 71 72 71 68 69 72 69 71 70 72 76 80 86 81 81 80
7 8 9 7 8 12 12 11 8 11 10 9 8 8 8 9 9 10 12 13 18 20 28 36 43 53 57 61 62 63 64 65 66 65 63 62 62 67 72 81 82 79 73 80 85 84 80 81 85
6 6 6 8 13 9 11 10 7 8 8 9 8 9 9 10 11 13 15 17 26 29 34 41 49 53 57 59 61 61 58 58 58 59 60 63 66 66 73 72 77 77 78 78 82 79 78 83 84
Wind_Speed
10 12 6 6 6 4 11 16 15 11 11 9 9 8 12 15 15 6 18 15 20 20 18 15 13 13 12 12 12 13 13 13 12 10 8 7 7 6 4 3 2 2 3 3 3 4 5 5 5
11 5 6 5 6 10 10 15 12 10 10 12 7 6 3 13 12 15 16 19 19 19 17 16 13 13 14 13 12 12 12 12 11 9 8 6 5 5 4 2 1 1 2 3 2 3 4 5 5
11 5 6 4 4 11 11 17 12 9 8 5 6 7 5 9 10 16 17 20 18 19 17 18 14 14 13 12 12 12 11 10 9 8 7 5 4 4 3 2 2 1 1 2 2 2 3 5 5
6 5 5 2 14 16 16 14 12 11 8 1 3 12 11 6 13 10 19 19 16 16 16 20 14 14 13 12 11 11 11 10 9 8 6 5 4 4 4 4 3 3 1 1 0 2 3 3 3
8 6 7 12 13 15 14 10 9 10 6 7 4 13 13 8 11 19 19 16 16 16 19 16 13 13 13 12 11 10 10 9 8 8 6 5 5 5 4 2 3 2 3 1 2 1 1 2 2
7 4 2 8 13 12 12 8 8 11 10 8 11 15 10 10 15 18 17 15 15 15 17 16 13 13 12 11 11 9 8 7 7 8 7 5 3 4 3 3 3 3 5 3 2 1 1 2 2
10 8 7 11 13 11 12 1 11 9 8 11 3 13 11 15 15 16 15 13 13 14 18 15 14 12 12 11 10 9 7 7 8 7 6 5 4 4 4 3 4 5 5 4 3 2 3 3 3
6 9 3 11 11 13 7 8 4 11 14 7 2 9 13 17 17 16 14 12 11 11 14 17 12 14 12 13 10 8 8 8 7 6 6 5 5 8 9 9 9 6 4 3 2 3 4 5 6
6 8 6 8 7 14 8 13 5 6 9 8 4 8 21 19 17 17 15 13 9 9 11 13 16 5 9 4 14 12 9 6 8 9 9 7 10 12 14 12 12 7 5 4 5 7 7 8 13
5 7 14 8 4 10 5 8 8 11 8 12 7 12 19 19 16 16 15 14 13 12 10 9 17 16 11 11 13 10 12 10 10 10 11 9 7 4 8 12 13 10 8 8 10 10 9 13 2
14 7 7 5 8 4 12 7 3 11 3 10 14 13 17 16 15 15 14 14 14 13 9 10 9 14 15 12 9 4 6 6 8 5 5 10 3 7 7 8 9 6 11 8 11 10 6 7 2
7 7 3 3 4 7 1 7 7 5 13 8 12 15 16 15 14 13 13 12 14 14 13 12 8 7 7 7 6 9 10 7 7 10 8 7 6 4 5 4 3 6 4 4 4 4 7 7 5
8 3 3 4 2 5 5 2 3 8 5 12 14 15 16 15 13 12 11 10 9 11 11 11 11 7 7 5 6 6 5 4 6 7 11 9 7 6 5 5 5 4 6 6 4 4 3 7 7
2 4 1 5 3 9 8 6 4 6 7 13 13 14 14 14 13 12 11 11 9 10 11 11 11 11 9 8 6 6 7 5 7 6 8 11 7 6 7 6 7 6 6 5 5 4 4 3 4
9 10 9 8 3 1 10 5 7 9 10 13 12 12 13 12 12 12 11 10 11 11 12 11 11 12 11 10 9 8 7 8 7 8 8 10 10 8 8 7 7 7 7 5 4 5 8 5 3
15 9 7 11 10 3 7 10 10 9 12 12 13 11 11 13 13 12 12 11 13 11 10 11 11 13 13 12 10 9 8 8 7 8 8 11 11 10 9 9 8 8 8 7 7 8 7 5 5
10 5 7 9 6 3 7 9 13 10 11 13 12 13 11 12 12 12 13 13 13 11 12 11 11 11 13 12 10 10 9 9 9 9 9 11 12 13 11 9 10 8 8 8 8 8 7 6 8
5 2 4 6 8 4 7 7 13 11 11 12 13 13 13 13 14 15 15 14 13 15 13 13 11 11 10 9 9 9 9 9 10 9 9 11 11 13 11 11 10 8 9 9 9 6 8 8 8
3 3 8 9 2 11 6 5 9 15 12 13 14 13 14 14 15 16 15 14 14 14 15 14 14 11 10 10 10 10 10 10 10 10 11 10 10 12 11 11 11 10 10 9 6 4 7 10 10
8 4 16 5 5 10 2 11 10 11 10 11 12 15 14 15 15 16 17 16 16 16 16 16 15 14 13 11 10 9 9 10 10 10 10 12 12 12 11 11 11 12 11 13 10 8 9 8 10
14 9 7 0 9 5 7 14 11 9 8 10 10 10 12 15 15 16 16 17 17 17 17 16 15 14 14 14 10 10 10 10 9 9 8 11 12 13 12 11 11 11 10 11 10 11 12 11 10
7 7 4 6 8 8 9 6 7 16 14 9 9 8 12 13 13 14 16 16 17 16 16 15 15 15 14 14 13 13 12 12 11 10 7 9 9 13 12 11 11 12 12 12 12 10 11 11 11
6 6 7 6 14 9 9 7 6 5 12 14 16 12 12 13 14 13 14 14 13 14 13 14 14 14 14 13 15 12 14 13 11 10 12 12 10 13 15 14 14 13 13 13 12 12 9 8 9
8 11 8 12 15 10 14 9 1 14 11 11 16 14 11 11 12 10 12 12 10 10 10 11 12 10 11 12 13 13 14 12 11 11 10 12 11 12 14 15 12 12 13 15 13 14 13 13 11
10 12 5 9 7 5 4 2 7 28 27 1 5 12 14 13 13 12 9 10 10 11 10 9 10 10 10 11 12 12 12 13 13 13 12 13 11 8 12 15 14 14 15 15 13 13 13 13 12
13 12 9 4 4 1 8 5 10 20 3 2 5 6 8 7 9 13 16 15 14 13 11 11 12 12 12 11 11 9 10 9 9 11 11 11 12 12 9 10 13 15 15 14 13 11 11 13 12
12 5 8 11 12 7 6 12 5 8 6 4 4 8 10 12 9 13 9 12 12 12 12 13 13 12 11 11 9 9 8 10 9 9 9 10 11 11 12 12 12 14 14 14 14 12 11 12 11
10 11 12 7 4 6 9 11 14 6 6 7 10 9 10 11 12 11 8 9 10 12 12 11 12 11 11 9 8 7 7 7 8 8 10 11 11 12 11 12 11 13 14 14 14 12 12 13 10
8 9 2 8 8 7 9 8 6 4 6 7 9 13 14 14 13 19 7 9 10 11 10 10 10 10 8 7 7 6 6 7 7 8 9 10 11 11 11 8 9 11 14 12 11 13 14 12 12
8 9 9 9 7 8 5 10 10 6 7 7 12 12 12 13 14 12 12 8 10 9 10 9 8 8 8 7 7 7 7 7 8 8 8 9 11 10 10 13 13 13 14 12 12 13 11 10 11
Wind_Direction
222 233 300 262 256 201 84 93 86 113 106 85 69 23 58 27 19 54 146 137 139 136 139 156 145 141 135 142 151 154 154 158 153 162 166 168 161 155 150 137 96 54 68 64 63 68 72 68 60
289 320 238 280 252 96 73 94 93 82 90 100 103 145 63 74 58 127 138 134 148 137 145 150 149 146 145 141 146 155 156 157 160 158 163 168 162 155 171 169 166 30 11 22 24 43 45 53 56
263 274 280 250 8 88 88 86 84 76 112 137 111 36 24 65 110 131 126 141 145 139 158 131 153 150 148 145 143 148 148 153 159 162 163 167 172 178 189 207 212 256 305 354 3 43 49 43 46
290 195 256 330 75 71 81 91 112 116 121 102 35 89 87 62 123 120 146 148 141 144 145 134 152 152 153 150 151 149 148 154 162 171 177 180 194 205 212 226 222 233 219 254 355 51 46 39 44
243 259 261 97 73 84 72 71 61 82 105 106 300 92 92 108 103 131 144 150 150 145 123 146 153 156 157 159 164 161 160 164 174 181 188 197 213 230 251 238 235 237 159 158 77 54 51 34 30
231 237 223 91 91 102 97 86 85 78 68 99 99 105 86 119 132 146 150 155 155 147 127 140 151 162 166 168 174 174 176 184 198 204 195 213 217 227 209 204 149 157 120 110 101 101 341 334 329
288 267 86 108 109 89 90 346 76 85 101 87 148 82 120 146 142 147 155 166 154 148 139 148 162 166 171 178 187 179 188 202 214 217 185 197 193 211 195 190 163 140 133 152 178 204 256 274 284
278 318 37 105 98 92 100 68 342 72 70 99 343 112 158 142 154 148 157 167 168 154 157 152 164 171 184 165 178 183 193 204 208 220 217 198 218 203 199 199 186 163 164 171 96 310 256 253 247
242 243 100 76 66 109 164 119 93 103 123 62 60 39 128 144 156 157 160 161 173 172 166 162 152 188 203 267 165 177 196 199 219 217 209 206 225 181 174 133 141 151 173 203 217 229 245 245 237
228 292 79 70 9 107 115 107 132 136 160 125 87 102 126 153 162 162 169 167 179 179 171 199 155 161 182 206 134 192 181 199 200 200 174 215 234 107 88 143 157 169 197 226 224 233 235 247 93
103 256 52 117 99 315 123 114 51 74 312 78 111 134 144 160 169 167 179 174 178 177 186 197 193 159 163 226 173 146 217 187 155 237 183 254 174 223 195 168 179 189 192 235 192 206 233 270 151
321 81 305 99 153 154 90 100 122 356 53 72 112 143 153 165 175 170 181 175 176 176 188 182 207 174 218 156 189 161 236 174 192 183 196 245 262 218 279 224 200 156 211 245 222 179 199 234 193
304 27 228 112 282 257 129 197 31 95 88 99 122 150 161 171 167 170 175 165 176 174 186 186 176 197 196 203 183 263 220 200 219 171 177 218 234 225 208 248 249 250 204 205 197 264 262 184 237
8 272 191 161 177 176 207 172 199 109 131 122 141 156 168 172 171 166 180 166 177 173 179 187 179 179 206 204 228 208 248 212 231 237 195 198 245 233 242 225 231 230 238 245 211 79 290 258 256
274 274 180 141 228 230 305 165 134 128 143 142 149 164 167 176 173 173 183 177 188 168 175 182 192 182 198 204 204 224 231 223 220 224 236 194 210 232 250 237 232 231 224 252 279 260 238 245 256
239 232 24 151 174 210 155 252 129 136 152 156 148 154 172 176 179 180 174 187 170 197 180 184 188 184 187 199 206 228 222 247 226 225 222 207 221 235 214 245 239 233 242 222 227 239 243 261 274
145 221 180 138 190 182 257 203 124 159 167 159 162 158 176 175 183 179 179 187 172 198 169 192 193 200 187 197 210 216 230 230 240 235 226 201 212 227 228 240 239 244 243 248 253 242 245 260 255
93 257 102 159 128 214 237 153 136 165 184 168 173 169 177 178 184 176 191 187 186 178 194 193 202 211 202 198 209 223 223 225 232 236 235 223 210 213 227 233 251 245 236 246 250 266 289 308 294
314 187 109 98 99 239 64 199 150 157 196 173 179 178 184 188 180 178 192 196 198 197 192 203 203 204 207 207 213 214 228 226 228 231 231 232 226 223 203 236 232 232 253 250 272 271 220 252 272
241 160 76 324 98 274 118 86 119 143 182 184 196 179 193 196 192 191 190 203 207 207 205 203 213 203 210 218 220 233 227 232 233 233 228 216 230 230 238 222 237 230 229 219 232 251 275 269 258
357 5 1 311 130 210 156 134 122 131 158 146 205 186 191 193 203 193 196 203 211 213 210 210 205 215 212 223 223 232 241 255 240 241 242 221 213 223 225 235 226 253 246 252 208 214 220 251 262
205 308 291 245 125 283 182 28 165 158 133 165 188 182 185 193 199 193 197 206 216 217 210 214 205 208 216 216 230 244 236 236 239 228 240 228 213 221 215 219 228 225 243 244 247 235 232 210 250
66 326 304 272 251 180 225 81 71 152 148 164 158 176 178 173 183 191 198 196 209 205 212 204 199 207 213 213 224 233 240 251 250 236 239 228 224 230 224 226 224 222 226 234 248 249 221 234 231
309 273 253 238 86 6 265 133 12 336 284 178 152 162 162 181 179 192 184 188 199 197 206 198 183 191 208 219 231 228 257 274 269 261 248 239 233 236 231 229 228 237 232 232 228 227 235 234 231
241 245 248 286 193 174 76 268 168 203 246 147 180 172 176 179 196 192 211 197 198 195 198 184 176 183 204 216 224 235 239 247 262 268 265 267 269 229 226 217 228 236 238 243 239 232 229 220 227
303 318 331 284 23 175 134 104 145 192 48 217 264 277 298 211 213 225 197 195 203 202 179 188 170 182 189 198 209 220 234 241 241 238 251 264 265 264 256 228 234 234 242 244 233 239 234 223 224
284 318 341 310 264 246 148 116 169 120 119 110 295 225 251 256 233 267 227 182 194 179 185 177 163 173 185 189 190 204 219 233 264 285 292 273 259 258 262 265 250 246 236 240 245 242 236 235 227
285 334 300 279 319 292 53 268 65 138 48 32 306 331 327 310 281 232 244 215 181 177 175 167 166 172 177 178 179 194 213 229 246 257 264 273 280 281 278 271 266 259 246 238 242 248 245 240 228
310 276 236 294 299 311 293 103 118 68 5 335 314 302 320 321 313 328 215 253 168 175 169 170 172 169 170 178 179 195 215 226 237 251 264 272 285 293 284 273 268 265 257 241 240 242 243 240 234
288 303 291 308 317 320 334 271 59 30 308 306 315 325 326 335 322 311 297 236 159 180 180 183 177 180 183 184 190 205 230 243 261 266 277 289 286 273 264 273 261 249 251 254 252 249 244 241 235